Location: Domont
(49.0278°N, 2.3264°E)
Time: 10:19:36
(UTC+00:00)

Cosmos 1626 Rocket - Pass Details

Date: 04 June 2022
Orbit: 602 x 631 km, 82.5° (Epoch: 30 June)

Event Time Altitude Azimuth Distance (km) Brightness Sun altitude
Exits shadow 01:27:18 - 140° (SE) 2,697 6.6 -15.3°
Reaches altitude 10° 01:29:45 10° 121° (ESE) 1,970 6.1 -15.1°
Maximum altitude 01:32:21 16° 84° (E) 1,627 6.1 -14.9°
Drops below altitude 10° 01:34:56 10° 47° (NE) 1,970 7.3 -14.8°
Sets 01:37:54 0° 26° (NNE) 2,876 9.0 -14.5°
